Location: Eckley
(40.9930°N, 75.8630°W)
Time: 09:44:01
(UTC-04:00)

Daily predictions for brighter satellites

Satellite Brightness Start Highest point End
(mag) Time Altitude Azimuth Time Altitude Azimuth Time Altitude Azimuth
Meteor 1-29 3.2 20:08:00 10° N 20:11:27 76° WNW 20:14:55 10° SSW
Tiangong 1 1.3 20:08:57 10° W 20:12:02 65° N 20:15:07 10° ENE
Meteor 2-4 Rocket 3.9 20:06:12 10° N 20:12:05 86° E 20:18:01 10° S
Cosmos 2278 3.9 20:07:02 10° S 20:12:27 49° ESE 20:17:55 10° NE
Helios 1B rocket 3.0 20:09:14 10° N 20:13:20 65° WNW 20:17:24 10° SSW
Cosmos 1821 Rocket 3.9 20:12:44 10° S 20:18:51 80° E 20:24:58 10° N
Cosmos 1975 4.0 20:15:37 10° SE 20:18:55 24° E 20:22:14 10° NE
Cosmos 1605 Rocket 4.3 20:15:52 10° SSE 20:21:55 49° E 20:27:56 10° NNE
Okean 2 3.4 20:18:59 10° N 20:23:11 75° E 20:27:19 10° SSE
Cosmos 2369 3.8 20:20:36 10° S 20:26:07 57° ESE 20:31:42 10° NNE
Cosmos 1777 Rocket 4.3 20:21:13 10° NNW 20:26:28 73° WSW 20:31:42 10° S
Lacrosse 5 rocket 1.7 20:23:06 10° NNW 20:26:41 41° NE 20:29:46 12° ESE
Cosmos 1633 4.1 20:23:15 10° SSW 20:26:43 40° WNW 20:30:11 10° N
NOSS 7 (D) 4.3 20:24:05 10° SSW 20:27:34 72° ESE 20:30:55 10° NE
H-2A R/B 2.8 20:24:12 10° SSE 20:28:01 60° ENE 20:31:54 10° N
Cosmos 1980 Rocket 3.7 20:27:47 10° SE 20:30:44 15° E 20:33:41 10° ENE
Meteor 1-12 Rocket 4.5 20:30:29 10° SSE 20:35:58 50° E 20:41:35 10° NNE
NOSS 3-4 (A) 3.9 20:29:52 10° NW 20:36:56 84° WSW 20:44:25 10° SSE
NOSS 3-4 (C) 3.9 20:30:00 10° NW 20:37:04 85° SW 20:44:32 10° SSE
CZ-4 DEB 3.8 20:38:27 16° ESE 20:40:17 27° ENE 20:43:00 10° NNE
Cosmos 2208 Rocket 4.2 20:39:44 10° SSW 20:45:02 78° WNW 20:50:28 10° NNE
CZ-2D R/B 3.5 20:42:46 10° S 20:46:37 72° WSW 20:50:31 10° NNW
H-2A R/B 3.5 20:46:30 16° E 20:48:07 20° ENE 20:51:07 10° NNE
Cosmos 1461 2.8 20:44:55 10° NW 20:48:59 80° WSW 20:52:18 14° SSE
OAO 2 Rocket 4.0 20:46:21 10° WSW 20:50:59 38° S 20:54:03 19° ESE
Cosmos 2123 Rocket 4.1 20:45:07 10° N 20:51:20 83° W 20:57:29 10° S
Cosmos 1626 Rocket 3.6 20:47:15 10° N 20:51:37 61° E 20:55:45 11° SSE
Cosmos 2298 Rocket 4.4 20:47:14 10° N 20:52:20 45° ENE 20:55:58 18° SE
Cosmos 1939 Rocket 3.7 20:50:49 19° SE 20:53:10 34° ENE 20:56:57 10° N
FENGYUN 3A 4.1 20:50:08 10° S 20:55:26 64° WSW 21:00:46 10° NNW
Cosmos 1455 Rocket 3.7 20:51:30 10° SSW 20:55:45 58° W 21:00:03 10° N
Cosmos 2227 Rocket 2.4 20:52:59 10° NNW 20:58:39 76° WSW 21:04:17 10° SSE
Cosmos 1656 3.6 20:54:42 10° S 21:00:14 61° ESE 21:05:43 10° NNE
Cosmos 1602 Rocket 3.5 20:55:59 10° N 21:00:29 77° E 21:04:39 11° SSE
Envisat 3.5 20:57:13 19° SE 21:00:30 42° ENE 21:05:16 10° N
Cosmos 1937 Rocket 4.2 20:58:53 10° N 21:03:48 37° ENE 21:06:20 24° ESE
Cosmos 1346 Rocket 4.0 21:00:16 10° NNW 21:04:00 41° W 21:07:45 10° SSW
Cosmos 1459 Rocket 4.3 20:59:11 10° SSE 21:04:48 42° E 21:10:28 10° NNE
Cosmos 1500 3.2 21:02:27 14° SSE 21:05:31 52° E 21:09:12 10° NNE
Iridium 4 Rocket 3.3 21:04:39 10° N 21:09:48 82° E 21:14:17 11° S
ALOS 3.6 21:06:05 10° SSW 21:10:27 39° W 21:14:50 10° NNW
Cosmos 2082 4.1 21:07:20 10° NNW 21:12:53 62° WSW 21:18:05 12° S
Cosmos 2084 3.5 21:09:11 10° NNW 21:13:11 57° NE 21:14:49 33° ESE
Cosmos 2297 Rocket 2.3 21:08:28 10° NNW 21:14:09 79° WSW 21:18:31 17° SSE
Cosmos 220 Rocket 4.0 21:14:05 10° NNW 21:18:19 74° WSW 21:20:50 23° S
Cosmos 1340 3.7 21:15:08 10° NNE 21:18:25 28° ENE 21:18:25 28° ENE
Cosmos 2150 Rocket 3.9 21:13:44 10° NNW 21:18:53 67° ENE 21:21:30 29° SE
Cosmos 1153 Rocket 4.5 21:13:50 10° S 21:20:03 85° W 21:26:14 10° N
RESURS DK-1 3.0 21:16:32 10° N 21:20:29 40° ENE 21:21:23 35° E
CZ-3C R/B 4.2 20:44:49 10° W 21:21:35 29° SSW 21:28:19 15° SSE
USA 186 4.1 21:22:52 10° SSW 21:25:26 22° W 21:27:54 10° NW
YAOGAN 6 3.7 21:26:58 29° ENE 21:26:58 29° ENE 21:29:54 10° N
Cosmos 1515 4.0 21:24:54 10° NNW 21:28:43 65° W 21:30:46 25° S
DELTA 2 R/B (1) 3.7 21:23:28 10° W 21:28:57 59° SSW 21:31:01 36° SE
BREEZE-M DEB (TANK) 3.9 21:12:56 10° WSW 21:29:13 77° SSE 21:32:42 20° ENE
ERS-1 Rocket 3.1 21:27:56 20° S 21:31:28 75° WSW 21:36:30 10° NNW
Cosmos 1606 Rocket 3.8 21:34:01 46° ESE 21:34:14 46° E 21:38:28 10° NNE
Cosmos 1802 Rocket 4.0 21:29:34 17° S 21:34:29 63° E 21:40:51 10° NNE
MetOp-A 4.3 21:34:10 38° ESE 21:35:52 53° ENE 21:41:04 10° N
Cosmos 1743 2.6 21:40:00 63° SSE 21:40:33 77° E 21:44:29 10° N
Cosmos 1898 Rocket 3.6 21:35:40 10° NNW 21:40:58 74° WSW 21:43:26 32° S
OTV 4 2.9 21:40:04 10° WSW 21:41:08 15° SW 21:41:08 15° SW
Cosmos 1763 Rocket 3.5 21:43:23 48° SE 21:44:05 52° ESE 21:49:01 10° NNE
Lacrosse 5 1.8 21:41:58 10° NW 21:47:03 76° NE 21:48:07 54° ESE
Cosmos 1066 Rocket 4.5 21:41:32 10° NNW 21:47:10 68° W 21:50:49 23° S
Tiangong 1 2.0 21:45:35 10° WNW 21:47:55 46° WNW 21:47:55 46° WNW
Cosmos 2016 Rocket 3.8 21:47:11 31° SSE 21:50:11 70° E 21:56:21 10° NNE
Cosmos 1697 Rocket 2.9 21:45:48 10° SSW 21:51:25 70° WNW 21:57:05 10° NNE
SPOT 5 2.8 21:50:57 51° SSE 21:52:13 83° ENE 21:57:05 10° NNW
SL-16 R/B 3.9 22:00:58 19° ENE 22:00:58 19° ENE 22:02:49 10° NE
Cosmos 1726 Rocket 3.5 21:58:24 69° ENE 21:58:24 69° ENE 22:02:29 10° NNE
SL-08 RB Rocket 4.4 22:01:28 40° NE 22:01:28 40° NE 22:05:20 10° N
NOAA 11 4.3 22:00:38 53° E 22:01:12 55° ENE 22:06:32 10° N
Cosmos 2173 Rocket 4.3 21:56:31 10° SSW 22:02:51 70° W 22:09:12 10° N
USA 215 4.0 22:00:24 29° E 22:03:08 44° NNE 22:09:14 10° NW
Cosmos 1842 4.2 22:01:40 10° N 22:04:21 40° NNE 22:04:21 40° NNE
Lacrosse 5 rocket 3.1 22:02:58 10° WNW 22:05:31 19° WSW 22:05:31 19° WSW
Cosmos 841 Rocket 3.3 22:05:14 69° SE 22:05:38 74° ESE 22:10:52 10° NNE
Cosmos 1825 Rocket 4.1 22:07:37 10° NNW 22:11:56 53° W 22:12:29 49° WSW
ARGOS 3.0 22:12:12 67° E 22:12:27 68° ENE 22:17:48 10° N
Cosmos 1980 Rocket 2.3 22:08:19 10° SSW 22:13:59 75° WNW 22:19:43 10° NNE
Cosmos 1864 Rocket 4.3 22:17:11 65° SSE 22:18:01 76° E 22:24:09 10° N
Cosmos 967 Rocket 4.3 22:12:36 10° NNW 22:19:00 90° NE 22:19:56 67° SSE
Cosmos 1953 Rocket 4.0 22:17:11 10° NNW 22:21:30 58° W 22:21:30 58° W
USA 245 4.4 22:21:02 61° S 22:22:15 85° WSW 22:28:39 10° NNW
Tsikada Rocket 3.9 22:16:11 10° N 22:22:38 78° E 22:23:28 68° SE
H-2A R/B 3.3 22:23:39 33° WSW 22:23:54 33° W 22:27:40 10° NNW
Meteor 1-15 Rocket 4.1 22:24:50 78° SE 22:25:07 80° E 22:31:01 10° NNE
Terra 3.1 22:28:05 30° NE 22:28:05 30° NE 22:31:04 10° N
Cosmos 1666 4.5 22:31:54 29° NNW 22:31:54 29° NNW 22:33:55 10° N
Milstar 3 Cent rocket 4.3 22:15:15 10° W 22:31:52 41° SSW 22:34:14 37° S
ASTEX 1 4.4 22:33:30 10° N 22:38:14 43° WNW 22:39:19 38° WSW
Cosmos 2263 Rocket 3.1 22:37:29 10° N 22:41:51 37° NE 22:41:51 37° NE
Cosmos 2322 Rocket 3.0 22:48:05 41° NNE 22:48:05 41° NNE 22:51:41 10° NNE
Cosmos 1816 Rocket 4.4 22:40:18 10° N 22:46:43 87° W 22:46:49 86° SW
H-2A R/B 2.7 22:48:51 47° N 22:48:51 47° N 22:52:25 10° N
Cosmos 1725 Rocket 4.3 22:47:52 51° SW 22:49:08 61° W 22:55:20 10° N
CZ-4B R/B 4.4 22:58:19 10° N 23:02:02 42° NW 23:02:02 42° NW
Cosmos 2233 Rocket 4.3 23:15:54 60° WNW 23:15:54 60° WNW 23:21:43 10° N
Lacrosse 5 4.4 23:26:11 10° WNW 23:27:19 14° W 23:27:19 14° W
SL-16 R/B 3.4 23:42:47 38° NW 23:42:47 38° NW 23:47:16 10° N
USA 215 3.9 23:47:44 47° WNW 23:47:44 47° WNW 23:52:27 10° NW
